Weather History for KHFD - November, 2012

Change the Weather History Date:

Saturday, November 3, 2012

  Actual Average Record
Temperature  
Mean Temperature 47 °F -  
Max Temperature 52 °F 61 °F 79 °F (1982)
Min Temperature 41 °F 37 °F 15 °F (1980)
Degree Days  
Heating Degree Days 18    
Moisture  
Dew Point 29 °F    
Average Humidity 54    
Maximum Humidity 65    
Minimum Humidity 41    
Precipitation  
Precipitation 0.00 in - - ()
Sea Level Pressure  
Sea Level Pressure 29.78 in    
Wind  
Wind Speed 8 mph (NW)    
Max Wind Speed 15 mph    
Max Gust Speed 23 mph    
Visibility 10 miles    
Events      
Averages and records for this station are not official NWS values.
T = Trace of Precipitation, MM = Missing Value Source: NWS Daily Summary

Daily Weather History Graph

Daily Weather History Graph

Search for Another Location

Airport or City:

Trip Planner

Search our weather history database for the weather conditions in past years. The results will help you decide how hot, cold, wet, or windy it might be!

Date:

Astronomy

Nov. 03, 2012 Rise Set
Actual Time 7:25 AM EDT 5:42 PM EDT
Civil Twilight 6:56 AM EDT 6:11 PM EDT
Nautical Twilight 6:23 AM EDT 6:44 PM EDT
Astronomical Twilight 5:51 AM EDT 7:16 PM EDT
Moon 9:19 PM EDT (11/3) 11:29 AM EDT (11/3)
Length of Visible Light 11h 14m
Length of Day
10h 16m
Waning Gibbous, 80% of the Moon is Illuminated
Nov 3
Waning Gibbous
Nov 6
Last Quarter
Nov 13
New
Nov 20
First Quarter
Nov 28
Full

Hourly Weather History & Observations

Time (EDT) Temp. Windchill Dew Point Humidity Pressure Visibility Wind Dir Wind Speed Gust Speed Precip Events Conditions
12:53 AM 44.1 °F 38.6 °F 32.0 °F 63% 29.69 in 10.0 mi WNW 10.4 mph - N/A   Overcast
1:53 AM 44.1 °F 41.5 °F 32.0 °F 63% 29.68 in 10.0 mi West 4.6 mph - N/A   Overcast
2:53 AM 43.0 °F 40.3 °F 32.0 °F 65% 29.70 in 10.0 mi WNW 4.6 mph - N/A   Mostly Cloudy
3:53 AM 44.1 °F 40.8 °F 32.0 °F 63% 29.70 in 10.0 mi NW 5.8 mph - N/A   Overcast
4:53 AM 43.0 °F 41.3 °F 32.0 °F 65% 29.70 in 10.0 mi NW 3.5 mph - N/A   Mostly Cloudy
5:53 AM 43.0 °F 40.3 °F 30.9 °F 62% 29.71 in 10.0 mi NW 4.6 mph - N/A   Mostly Cloudy
6:53 AM 44.1 °F 42.5 °F 30.9 °F 60% 29.73 in 10.0 mi WNW 3.5 mph - N/A   Overcast
7:53 AM 44.1 °F 40.1 °F 30.0 °F 58% 29.76 in 10.0 mi NW 6.9 mph - N/A   Overcast
8:53 AM 43.0 °F 38.2 °F 30.0 °F 60% 29.78 in 10.0 mi NW 8.1 mph - N/A   Scattered Clouds
9:53 AM 46.9 °F - 30.9 °F 54% 29.78 in 10.0 mi NNW 6.9 mph - N/A   Clear
10:53 AM 48.9 °F - 30.0 °F 48% 29.78 in 10.0 mi WNW 8.1 mph - N/A   Clear
11:53 AM 50.0 °F - 30.0 °F 46% 29.78 in 10.0 mi NW 10.4 mph - N/A   Clear
12:53 PM 51.1 °F - 30.0 °F 44% 29.76 in 10.0 mi WNW 11.5 mph 16.1 mph N/A   Clear
1:53 PM 52.0 °F - 28.9 °F 41% 29.76 in 10.0 mi WNW 15.0 mph 23.0 mph N/A   Partly Cloudy
2:53 PM 50.0 °F - 28.9 °F 44% 29.77 in 10.0 mi NW 12.7 mph 21.9 mph N/A   Clear
3:53 PM 48.9 °F - 28.0 °F 44% 29.80 in 10.0 mi NW 13.8 mph 23.0 mph N/A   Partly Cloudy
4:53 PM 46.9 °F - 27.0 °F 46% 29.81 in 10.0 mi NW 12.7 mph - N/A   Clear
5:53 PM 46.9 °F - 28.0 °F 48% 29.82 in 10.0 mi NW 9.2 mph - N/A   Overcast
6:53 PM 46.0 °F 40.2 °F 27.0 °F 47% 29.84 in 10.0 mi NW 12.7 mph 19.6 mph N/A   Overcast
7:53 PM 46.0 °F 41.9 °F 27.0 °F 47% 29.85 in 10.0 mi NW 8.1 mph - N/A   Overcast
8:53 PM 45.0 °F 41.2 °F 27.0 °F 49% 29.87 in 10.0 mi NW 6.9 mph - N/A   Overcast
9:53 PM 43.0 °F 38.8 °F 27.0 °F 53% 29.88 in 10.0 mi NW 6.9 mph - N/A   Clear
10:53 PM 42.1 °F 38.4 °F 28.0 °F 58% 29.88 in 10.0 mi NNW 5.8 mph - N/A   Clear
11:53 PM 41.0 °F 38.0 °F 28.0 °F 60% 29.88 in 10.0 mi Variable 4.6 mph - N/A   Clear